User: anonymous   Login
Location: Home
(51.5204°N, 2.5456°W)
Time: 15:42:40
(UTC+00:00)
Language:

QB50P2 - Orbit

View from above orbital plane
View from above orbital plane
View from above satellite
View from above satellite

Ground track
Ground track

The orbit data is extracted from the following two-line orbital elements,

1 40032U 14033Y   19342.79917645 +.00000208 +00000-0 +28402-4 0  9997
2 40032 097.8999 260.0608 0011188 200.5437 159.5331 14.88564425296476
Epoch (UTC): 08 December 2019 19:10:48
Eccentricity: 0.0011188
inclination: 97.8999°
perigee height: 594 km
apogee height: 610 km
right ascension of ascending node: 260.0608°
argument of perigee: 200.5437°
revolutions per day: 14.88564425
mean anomaly at epoch: 159.5331°
orbit number at epoch: 29647

The dashed part of the orbit path shows where the satellite is in the earth's shadow,  

DLR